Weather in Moreno Valley

United States     33°55′45″N   117°15′38″W
temp.,
°C
wind,
m/s
gust,
m/s
humid.,
%
clouds,
%
prec.,
mm/h
press.,
hPa
HPBL,
m
7 may, fri
fri723:00+16w11700 0.0 1016216
02:00+14w01780 0.0 1015181
05:00+13wsw11812 0.0 1015176
08:00+16s116837 0.0 1016402
11:00+22w22425 0.0 1014860
14:00+26wnw54270 0.0 10121384
17:00+25w55260 0.0 10111237
20:00+18w33480 0.0 1012316
8 may, sat
sat823:00+15s11630 0.0 1013271
02:00+12se11760 0.0 1013197
05:00+11sse22857 0.0 1013129
08:00+14ssw21690 0.0 1013332
11:00+22sw32340 0.0 1012817
14:00+26w43250 0.0 1010975
17:00+25wnw54320 0.0 10101037
20:00+19wnw23480 0.0 1011287
9 may, sun
sun923:00+16wnw11600 0.0 1012186
02:00+14ssw11680 0.0 1011152
05:00+13wsw01740 0.0 1011138
08:00+16ssw11630 0.0 1012439
11:00+21w22420 0.0 1011939
14:00+25wnw44270 0.0 10081399
17:00+24wnw64340 0.0 10071206
20:00+17sw23510 0.0 1009416
10 may, mon
mon1023:00+14se22730 0.0 1010280
02:00+12se228542 0.0 1010216
05:00+11se228457 0.0 1011236
08:00+14s227111 0.0 1011482
11:00+20wsw21450 0.0 1010894
14:00+25wnw53310 0.0 10081312
17:00+23w54390 0.0 10091112
20:00+17wnw33580 0.0 1010336
11 may, tue
tue1123:00+15w11690 0.0 1012234
02:00+13w12760 0.0 1012167
05:00+12ssw11780 0.0 1012132
08:00+16wsw21580 0.0 1013341
11:00+23wsw32280 0.0 1012636
14:00+28w43180 0.0 1010829
17:00+27wnw54250 0.0 1010954
20:00+20wnw33440 0.0 1013253